Regional Weather Roundup
Issued by NWS

Home | Current Version | Previous Version | Graphics & Text | Print | Product List | Glossary On
Versions: 1 2 3 4 5 6 7 8 9 10 11 12 13 14 15 16 17 18 19 20 21 22 23 24 25 26 27 28
000
ASUS45 KBOI 271110
RWRID

IDAHO REGIONAL WEATHER ROUNDUP
NATIONAL WEATHER SERVICE BOISE ID
500 AM MDT WED JUL 27 2016

NOTE: "FAIR" INDICATES FEW OR NO CLOUDS BELOW 12000 FEET
WITH NO SIGNIFICANT WEATHER AND/OR OBSTRUCTIONS TO VISIBILITY

IDZ012-014-271200-
SOUTHWEST IDAHO


CITY           SKY/WX    TMP DP  RH WIND       PRES   REMARKS
BOISE          CLEAR     68  50  52 S3        30.00R
CALDWELL       NOT AVBL
MOUNTAIN HOME  CLEAR     64  42  45 CALM      30.01R
$$

IDZ016-017-271200-
SOUTHCENTRAL IDAHO


CITY           SKY/WX    TMP DP  RH WIND       PRES   REMARKS
BURLEY         CLEAR     55  47  74 SE3       30.09R
JEROME         CLEAR     67  43  41 E10       30.09R
TWIN FALLS     CLEAR     65  35  33 S7        30.09R
$$

IDZ019>023-271200-
SOUTHEAST IDAHO


CITY           SKY/WX    TMP DP  RH WIND       PRES   REMARKS
IDAHO FALLS    CLEAR     50  45  83 N5        30.14S
POCATELLO      CLEAR     53  39  59 NE3       30.12S
REXBURG        CLEAR     52  46  80 NE5       30.16R
$$

IDZ006-010-011-018-031-032-271200-
CENTRAL IDAHO MOUNTAINS


CITY           SKY/WX    TMP DP  RH WIND       PRES   REMARKS
MCCALL         CLEAR     57  47  69 CALM      30.16S
HAILEY         CLEAR     57  37  47 NW12      30.20S
STANLEY          N/A     42  34  73 CALM      30.30R
SALMON         CLEAR     52  43  71 CALM      30.16R
CHALLIS        CLEAR     52  38  58 CALM      30.20R
$$

IDZ002-004-006-007-026-271200-
NORTHERN IDAHO


CITY           SKY/WX    TMP DP  RH WIND       PRES   REMARKS
LEWISTON       CLEAR     73  49  42 SW3       29.96R
LOWELL           N/A     61  56  83 NW3       30.04R
COEUR D`ALENE  CLEAR     61  54  77 NE9       30.02S
MULLAN PASS    CLEAR     60  42  51 SE3       30.24R
$$




USA.gov is the U.S. government's official web portal to all federal, state and local government web resources and services.